Date [UTC],CO2 [ppm],CH4 [ppb],N2O [ppb],SF6 [ppt]
2016-01-01 01:00:00,457.07,2241.29,333.37,10.05
2016-01-01 02:00:00,456.52,2241.12,332.23,10.37
2016-01-01 03:00:00,465.70,2246.50,334.28,10.32
2016-01-01 04:00:00,465.42,2270.90,334.15,10.69
2016-01-01 05:00:00,467.59,2306.84,334.80,10.84
2016-01-01 06:00:00,471.98,2336.50,333.40,10.30
2016-01-01 07:00:00,475.55,2324.18,333.54,10.52
2016-01-01 08:00:00,471.21,2328.83,333.16,10.46
2016-01-01 09:00:00,472.04,2321.26,332.64,10.52
2016-01-01 10:00:00,468.68,2298.59,333.73,10.34
2016-01-01 11:00:00,448.23,2193.71,332.29,9.88
2016-01-01 12:00:00,440.95,2140.80,332.30,9.71
2016-01-01 13:00:00,437.12,2114.89,331.25,9.61
2016-01-01 14:00:00,433.67,2099.59,331.46,9.51
2016-01-01 15:00:00,430.55,2083.42,331.85,9.58
2016-01-01 16:00:00,432.95,2121.40,331.26,9.85
2016-01-01 17:00:00,437.34,2156.95,333.16,9.86
2016-01-01 18:00:00,442.47,2185.00,333.83,10.00
2016-01-01 19:00:00,448.37,2217.27,332.74,10.23
2016-01-01 20:00:00,450.69,2258.21,333.17,10.26
2016-01-01 21:00:00,454.58,2284.26,332.29,10.37
2016-01-01 22:00:00,458.38,2312.56,333.39,10.16
2016-01-01 23:00:00,464.33,2352.19,333.78,10.31
2016-01-01 24:00:00,467.99,2355.46,334.75,10.24
2016-01-02 01:00:00,471.27,2339.83,334.19,10.34
2016-01-02 02:00:00,465.30,2337.17,334.49,10.19
2016-01-02 03:00:00,463.75,2354.21,333.32,10.20
2016-01-02 04:00:00,466.23,2341.77,334.47,10.10
2016-01-02 05:00:00,471.09,2312.84,332.88,9.99
2016-01-02 06:00:00,470.14,2314.62,333.48,9.99
2016-01-02 07:00:00,470.62,2334.97,333.85,10.15
2016-01-02 08:00:00,466.62,2311.07,334.18,9.98
2016-01-02 09:00:00,471.25,2323.14,334.86,9.98
2016-01-02 10:00:00,477.71,2414.58,335.12,10.12
2016-01-02 11:00:00,480.54,2571.63,334.91,10.23
2016-01-02 12:00:00,474.11,2550.29,334.26,10.34
2016-01-02 13:00:00,468.59,2509.62,335.38,10.71
2016-01-02 14:00:00,468.32,2474.19,333.50,10.39
2016-01-02 15:00:00,466.64,2468.83,334.28,11.00
2016-01-02 16:00:00,461.70,2404.16,333.75,11.37
2016-01-02 17:00:00,466.36,2458.98,334.52,11.69
2016-01-02 18:00:00,467.23,2490.08,333.61,11.19
2016-01-02 19:00:00,469.70,2507.77,334.21,10.74
2016-01-02 20:00:00,474.97,2543.45,333.62,10.75
2016-01-02 21:00:00,478.69,2558.27,334.59,10.76
2016-01-02 22:00:00,484.85,2570.11,334.77,10.88
2016-01-02 23:00:00,483.11,2532.18,334.92,11.01
2016-01-02 24:00:00,480.84,2490.75,333.38,11.11
2016-01-03 01:00:00,476.24,2449.59,332.86,11.19
2016-01-03 02:00:00,475.80,2454.60,334.73,11.09
2016-01-03 03:00:00,478.89,2557.49,334.84,11.18
2016-01-03 04:00:00,479.80,2579.80,334.24,11.01
2016-01-03 05:00:00,476.50,2519.77,333.87,11.05
2016-01-03 06:00:00,472.66,2459.32,333.70,10.97
2016-01-03 07:00:00,462.87,2344.92,333.54,10.42
2016-01-03 08:00:00,453.43,2235.87,332.22,9.94
2016-01-03 09:00:00,448.36,2184.12,332.39,9.89
2016-01-03 10:00:00,447.54,2176.84,332.10,9.83
2016-01-03 11:00:00,451.15,2196.00,332.14,10.01
2016-01-03 12:00:00,448.88,2199.60,332.58,9.85
2016-01-03 13:00:00,449.37,2194.88,332.13,9.81
2016-01-03 14:00:00,450.42,2190.82,331.92,9.80
2016-01-03 15:00:00,451.67,2222.42,332.55,9.96
2016-01-03 16:00:00,455.60,2287.02,333.08,9.91
2016-01-03 17:00:00,457.42,2299.61,333.42,9.94
2016-01-03 18:00:00,458.27,2301.25,332.67,9.92
2016-01-03 19:00:00,461.27,2286.87,332.51,9.92
2016-01-03 20:00:00,460.98,2273.33,331.65,9.85
2016-01-03 21:00:00,463.76,2261.41,331.99,9.83
2016-01-03 22:00:00,461.69,2266.26,332.40,9.71
2016-01-03 23:00:00,452.96,2182.80,332.86,9.64
2016-01-03 24:00:00,447.03,2170.49,332.06,9.62
2016-01-04 01:00:00,446.36,2255.60,331.65,9.70
2016-01-04 02:00:00,446.74,2236.10,332.05,9.72
2016-01-04 03:00:00,443.11,2165.26,331.23,9.54
2016-01-04 04:00:00,443.27,2178.64,332.29,9.54
2016-01-04 05:00:00,448.30,2173.21,332.77,9.64
2016-01-04 06:00:00,452.93,2165.94,332.93,9.61
2016-01-04 07:00:00,450.53,2165.26,332.16,9.72
2016-01-04 08:00:00,444.61,2145.65,332.50,9.73
2016-01-04 09:00:00,447.25,2154.99,333.59,9.69
2016-01-04 10:00:00,440.56,2140.32,332.14,9.57
2016-01-04 11:00:00,431.03,2084.80,332.55,9.35
2016-01-04 12:00:00,433.75,2098.46,331.42,9.35
2016-01-04 13:00:00,430.45,2109.80,331.42,9.32
2016-01-04 14:00:00,427.15,2069.76,332.01,9.23
2016-01-04 15:00:00,426.84,2058.67,330.72,9.31
2016-01-04 16:00:00,428.68,2069.44,330.55,9.25
2016-01-04 17:00:00,433.62,2080.63,332.55,9.29
2016-01-04 18:00:00,437.28,2095.24,332.28,9.36
2016-01-04 19:00:00,439.46,2126.10,332.95,9.49
2016-01-04 20:00:00,442.57,2153.47,332.74,9.48
2016-01-04 21:00:00,443.92,2190.52,332.49,9.46
2016-01-04 22:00:00,438.98,2141.13,331.64,9.50
2016-01-04 23:00:00,435.94,2117.40,331.45,9.48
2016-01-04 24:00:00,435.36,2106.75,331.24,9.35
2016-01-05 01:00:00,435.04,2094.73,332.14,9.38
2016-01-05 02:00:00,438.80,2103.30,332.28,9.53
2016-01-05 03:00:00,436.96,2114.92,331.98,9.38
2016-01-05 04:00:00,438.65,2110.22,331.54,9.32
2016-01-05 05:00:00,440.85,2110.17,331.73,9.37
2016-01-05 06:00:00,444.86,2124.00,331.63,9.36
2016-01-05 07:00:00,443.87,2112.11,330.86,9.34
2016-01-05 08:00:00,447.12,2118.77,331.30,9.42
2016-01-05 09:00:00,452.06,2161.78,331.72,9.49
2016-01-05 10:00:00,445.22,2136.43,331.98,9.48
2016-01-05 11:00:00,437.10,2095.82,331.84,9.35
2016-01-05 12:00:00,436.38,2120.22,331.64,9.45
2016-01-05 13:00:00,435.27,2095.59,332.54,9.44
2016-01-05 14:00:00,435.48,2073.19,331.12,9.34
2016-01-05 15:00:00,434.30,2095.88,331.13,9.30
2016-01-05 16:00:00,436.67,2082.31,331.79,9.53
2016-01-05 17:00:00,439.92,2088.89,332.53,9.54
2016-01-05 18:00:00,451.84,2180.11,332.57,9.81
2016-01-05 19:00:00,455.60,2219.65,332.75,10.06
2016-01-05 20:00:00,454.68,2216.53,331.92,10.06
2016-01-05 21:00:00,452.54,2199.32,331.87,10.02
2016-01-05 22:00:00,449.84,2182.43,332.51,9.88
2016-01-05 23:00:00,448.59,2194.94,331.86,9.63
2016-01-05 24:00:00,447.19,2182.37,331.40,9.68
2016-01-06 01:00:00,459.71,2241.40,333.38,9.89
2016-01-06 02:00:00,459.13,2219.60,332.57,9.80
2016-01-06 03:00:00,461.34,2217.06,332.65,9.79
2016-01-06 04:00:00,462.37,2245.33,334.05,10.01
2016-01-06 05:00:00,466.69,2244.96,333.34,9.93
2016-01-06 06:00:00,465.22,2239.69,333.09,9.84
2016-01-06 07:00:00,450.71,2175.13,332.06,9.74
2016-01-06 08:00:00,450.88,2142.10,333.21,9.61
2016-01-06 09:00:00,439.29,2053.59,331.60,9.42
2016-01-06 10:00:00,431.27,2023.14,331.38,9.23
2016-01-06 11:00:00,430.66,1999.06,332.24,9.21
2016-01-06 12:00:00,425.21,1974.64,332.10,9.15
2016-01-06 13:00:00,421.21,1973.84,331.33,9.19
2016-01-06 14:00:00,420.15,1978.73,331.10,9.06
2016-01-06 15:00:00,420.09,1992.55,330.64,9.07
2016-01-06 16:00:00,419.84,2008.86,330.31,9.14
2016-01-06 17:00:00,420.72,1991.96,331.24,8.97
2016-01-06 18:00:00,422.34,2014.74,330.21,9.07
2016-01-06 19:00:00,426.38,2053.64,330.89,9.22
2016-01-06 20:00:00,423.40,1993.15,330.89,9.10
2016-01-06 21:00:00,422.62,2006.94,330.73,9.15
2016-01-06 22:00:00,423.82,2007.04,331.51,9.17
2016-01-06 23:00:00,427.61,2034.03,330.08,9.19
2016-01-06 24:00:00,427.47,2030.52,331.09,9.16
2016-01-07 01:00:00,429.24,2018.30,331.37,9.19
2016-01-07 02:00:00,433.02,2025.32,331.92,9.32
2016-01-07 03:00:00,436.88,2018.18,331.48,9.14
2016-01-07 04:00:00,434.76,2035.39,331.61,9.21
2016-01-07 05:00:00,442.76,2042.28,331.12,9.22
2016-01-07 06:00:00,438.91,2039.12,331.28,9.25
2016-01-07 07:00:00,445.30,2038.00,331.79,9.30
2016-01-07 08:00:00,454.97,2059.12,332.39,9.27
2016-01-07 09:00:00,461.08,2068.97,332.47,9.18
2016-01-07 10:00:00,458.46,2068.02,332.29,9.23
2016-01-07 11:00:00,470.00,2070.54,333.72,9.28
2016-01-07 12:00:00,451.76,2054.89,333.53,9.13
2016-01-07 13:00:00,438.28,2101.38,332.10,9.44
2016-01-07 14:00:00,427.85,2051.73,332.06,9.81
2016-01-07 15:00:00,414.97,1961.49,331.29,9.18
2016-01-07 16:00:00,413.15,1951.55,330.91,9.03
2016-01-07 17:00:00,413.78,1950.70,330.87,9.03
2016-01-07 18:00:00,415.97,1951.49,330.78,8.99
2016-01-07 19:00:00,417.61,1958.74,331.34,9.10
2016-01-07 20:00:00,421.13,1967.46,331.57,9.13
2016-01-07 21:00:00,419.26,1966.07,329.55,9.22
2016-01-07 22:00:00,419.28,1989.91,331.00,9.12
2016-01-07 23:00:00,422.44,2071.38,331.05,9.06
2016-01-07 24:00:00,434.72,2032.00,331.52,9.35
2016-01-08 01:00:00,434.82,2040.79,332.93,9.20
2016-01-08 02:00:00,418.92,1966.05,331.15,9.13
2016-01-08 03:00:00,419.49,1969.95,332.33,9.03
2016-01-08 04:00:00,419.87,1968.41,331.22,8.88
2016-01-08 05:00:00,433.30,2008.13,331.81,9.24
2016-01-08 06:00:00,427.97,1991.39,330.85,8.97
2016-01-08 07:00:00,431.42,1975.54,330.64,9.29
2016-01-08 08:00:00,440.97,2003.45,332.39,9.23
2016-01-08 09:00:00,443.27,2014.58,332.08,9.23
2016-01-08 10:00:00,442.58,2043.86,331.63,9.28
2016-01-08 11:00:00,443.35,2071.62,331.57,10.30
2016-01-08 12:00:00,440.86,2060.14,331.96,10.18
2016-01-08 13:00:00,434.21,2040.83,331.47,9.92
2016-01-08 14:00:00,432.68,2050.59,331.40,10.04
2016-01-08 15:00:00,437.08,2046.54,332.29,9.87
2016-01-08 16:00:00,435.73,2055.84,331.79,10.31
2016-01-08 17:00:00,440.56,2057.83,331.62,10.41
2016-01-08 18:00:00,447.67,2087.25,331.31,10.41
2016-01-08 19:00:00,452.08,2094.07,331.35,10.41
2016-01-08 20:00:00,452.26,2106.70,331.33,10.27
2016-01-08 21:00:00,456.04,2101.30,332.87,10.31
2016-01-08 22:00:00,454.75,2143.80,332.20,9.82
2016-01-08 23:00:00,452.44,2164.74,332.79,9.44
2016-01-08 24:00:00,444.89,2087.06,331.74,9.64
2016-01-11 18:00:00,449.80,2162.07,331.38,10.24
2016-01-11 19:00:00,455.96,2205.27,332.42,10.49
2016-01-11 20:00:00,458.85,2243.29,332.53,10.59
2016-01-11 21:00:00,459.34,2243.08,332.80,10.55
2016-01-11 22:00:00,460.73,2253.12,332.48,10.46
2016-01-11 23:00:00,460.95,2288.00,333.22,10.36
2016-01-11 24:00:00,459.13,2271.73,332.89,10.08
2016-01-12 01:00:00,463.59,2235.74,333.71,10.23
2016-01-12 02:00:00,458.79,2205.57,332.93,10.08
2016-01-12 03:00:00,458.29,2178.30,332.37,9.84
2016-01-12 04:00:00,457.63,2164.22,332.36,9.75
2016-01-12 05:00:00,461.66,2158.99,333.34,9.92
2016-01-12 06:00:00,455.78,2154.81,332.68,9.83
2016-01-12 07:00:00,462.46,2146.13,333.48,9.87
2016-01-12 08:00:00,460.94,2147.83,332.87,9.92
2016-01-12 09:00:00,464.93,2129.42,333.82,9.71
2016-01-12 10:00:00,452.45,2140.89,333.64,9.51
2016-01-12 11:00:00,438.10,2103.14,332.00,9.32
2016-01-12 12:00:00,414.77,1960.50,330.65,9.04
2016-01-12 13:00:00,414.61,1986.87,331.00,9.00
2016-01-12 14:00:00,416.29,1975.50,330.78,9.12
2016-01-12 15:00:00,415.64,1974.78,329.94,9.18
2016-01-12 16:00:00,417.13,1977.31,330.39,9.13
2016-01-12 17:00:00,420.42,1993.67,331.97,9.10
2016-01-12 18:00:00,426.34,2023.00,331.87,8.94
2016-01-12 19:00:00,425.05,2031.14,331.66,8.95
2016-01-12 20:00:00,429.40,2054.46,331.07,8.98
2016-01-12 21:00:00,432.27,2090.61,330.94,9.10
2016-01-12 22:00:00,431.47,2064.24,332.22,9.10
2016-01-12 23:00:00,427.68,2015.18,331.50,9.13
2016-01-12 24:00:00,416.45,1976.15,331.42,9.18
2016-01-13 01:00:00,417.99,1965.64,330.27,9.11
2016-01-13 02:00:00,419.73,1983.94,331.02,9.22
2016-01-13 03:00:00,418.27,1962.45,330.71,9.15
2016-01-13 04:00:00,417.85,1981.71,330.15,9.03
2016-01-13 05:00:00,409.25,1941.28,331.22,9.01
2016-01-13 06:00:00,411.45,1988.08,330.69,9.01
2016-01-13 07:00:00,410.93,1979.36,330.30,9.06
2016-01-13 08:00:00,412.53,1965.52,329.74,9.07
2016-01-13 09:00:00,412.47,1975.48,330.29,8.98
2016-01-13 10:00:00,411.86,1952.81,330.12,9.07
2016-01-13 11:00:00,410.94,1946.06,331.06,8.97
2016-01-13 12:00:00,412.69,2005.24,331.76,9.07
2016-01-13 13:00:00,411.80,1994.73,330.39,9.08
2016-01-13 14:00:00,412.99,2022.27,330.77,8.82
2016-01-13 15:00:00,411.07,1945.60,330.48,8.94
2016-01-13 16:00:00,412.10,1957.36,330.10,9.01
2016-01-13 17:00:00,416.02,1979.79,330.99,8.93
2016-01-13 18:00:00,415.09,1965.94,330.94,9.03
2016-01-13 19:00:00,413.95,1960.79,331.48,9.17
2016-01-13 20:00:00,414.13,1957.63,331.72,9.08
2016-01-13 21:00:00,416.08,1966.66,331.21,9.13
2016-01-13 22:00:00,418.31,1968.11,330.91,9.22
2016-01-13 23:00:00,415.59,1976.04,330.75,9.24
2016-01-13 24:00:00,414.92,2005.84,331.57,8.85
2016-01-14 18:00:00,433.68,2106.17,332.49,10.66
2016-01-14 19:00:00,437.75,2106.98,332.25,11.41
2016-01-14 20:00:00,444.17,2125.59,331.87,11.50
2016-01-14 21:00:00,444.57,2130.66,331.66,11.42
2016-01-14 22:00:00,444.10,2151.42,330.98,11.49
2016-01-14 23:00:00,445.58,2159.88,332.02,11.36
2016-01-14 24:00:00,447.13,2166.34,331.89,11.38
2016-01-15 01:00:00,449.91,2194.96,331.60,11.46
2016-01-15 02:00:00,454.47,2182.70,333.39,11.32
2016-01-15 03:00:00,455.35,2218.04,332.81,11.28
2016-01-15 04:00:00,455.97,2224.67,332.84,11.20
2016-01-15 05:00:00,456.02,2226.88,333.77,10.93
2016-01-15 06:00:00,454.97,2200.08,332.05,10.75
2016-01-15 07:00:00,457.53,2205.79,332.58,10.80
2016-01-15 08:00:00,446.04,2167.18,331.02,10.25
2016-01-15 09:00:00,414.76,1971.06,330.47,9.14
2016-01-15 10:00:00,409.29,1935.21,331.15,8.99
2016-01-15 11:00:00,410.19,1991.60,329.98,8.97
2016-01-15 12:00:00,410.00,1981.88,330.19,8.98
2016-01-15 13:00:00,411.20,2011.10,329.62,8.89
2016-01-15 14:00:00,410.95,1993.16,330.52,8.98
2016-01-15 15:00:00,410.20,1984.62,331.91,8.88
2016-01-15 16:00:00,411.37,2010.15,330.92,8.97
2016-01-15 17:00:00,414.34,2088.33,330.39,9.03
2016-01-15 18:00:00,411.05,1965.99,329.34,9.00
2016-01-15 19:00:00,411.91,1974.66,331.14,8.90
2016-01-15 20:00:00,410.65,1957.48,331.10,9.06
2016-01-15 21:00:00,412.56,1979.61,329.79,9.03
2016-01-15 22:00:00,414.24,1952.35,330.34,9.09
2016-01-15 23:00:00,415.07,1973.33,329.57,9.01
2016-01-15 24:00:00,415.57,1978.74,329.41,8.93
2016-01-16 01:00:00,415.69,1982.88,330.54,8.88
2016-01-16 02:00:00,417.05,1961.31,330.73,8.85
2016-01-16 03:00:00,419.82,1991.83,330.95,8.96
2016-01-16 04:00:00,415.06,1960.87,330.14,8.92
2016-01-16 05:00:00,419.01,2027.28,331.12,9.10
2016-01-16 06:00:00,421.30,1979.69,330.61,9.13
2016-01-16 07:00:00,423.47,2041.41,329.91,9.04
2016-01-16 08:00:00,424.91,2044.19,331.04,8.98
2016-01-16 09:00:00,425.77,2004.98,331.32,9.12
2016-01-16 10:00:00,428.00,2028.14,330.68,9.26
2016-01-16 11:00:00,419.79,2019.28,330.84,9.03
2016-01-16 12:00:00,414.61,2012.13,329.96,9.04
2016-01-16 13:00:00,415.39,2050.78,330.46,9.06
2016-01-16 14:00:00,413.89,2010.00,330.36,9.16
2016-01-16 15:00:00,413.72,2010.82,330.05,9.10
2016-01-16 16:00:00,412.74,1981.31,329.60,9.06
2016-01-16 17:00:00,412.37,1959.35,330.60,8.88
2016-01-16 18:00:00,413.69,1981.65,330.87,8.89
2016-01-16 19:00:00,415.43,2012.57,331.02,8.90
2016-01-16 20:00:00,413.83,1987.44,331.37,9.07
2016-01-16 21:00:00,414.48,2015.51,330.48,9.00
2016-01-16 22:00:00,412.94,1968.58,330.46,9.05
2016-01-16 23:00:00,413.96,2010.76,329.85,9.10
2016-01-16 24:00:00,414.69,2005.46,330.36,9.01
2016-01-17 01:00:00,413.58,1988.91,331.75,8.94
2016-01-17 02:00:00,412.83,2000.33,330.22,9.00
2016-01-17 03:00:00,411.50,1980.71,329.84,9.00
2016-01-17 04:00:00,411.32,1976.64,329.37,9.10
2016-01-17 05:00:00,411.10,1957.94,330.21,9.14
2016-01-17 06:00:00,411.08,1958.10,330.11,9.08
2016-01-17 07:00:00,411.59,1980.25,330.41,8.91
2016-01-17 08:00:00,412.05,1967.32,330.69,9.28
2016-01-17 09:00:00,411.15,1948.16,329.81,9.27
2016-01-17 10:00:00,410.65,1955.16,330.07,9.03
2016-01-17 11:00:00,410.63,1951.52,331.27,8.93
2016-01-17 12:00:00,409.49,1937.00,329.11,9.20
2016-01-17 13:00:00,409.55,1938.05,330.26,9.26
2016-01-17 14:00:00,409.14,1940.57,330.42,9.05
2016-01-17 15:00:00,408.94,1943.04,330.57,8.89
2016-01-17 16:00:00,409.05,1941.08,331.55,8.92
2016-01-17 17:00:00,410.15,1939.05,330.49,9.02
2016-01-17 18:00:00,411.59,1940.08,330.87,9.05
2016-01-17 19:00:00,411.69,1944.08,329.89,9.12
2016-01-17 20:00:00,410.36,1940.95,330.18,9.04
2016-01-17 21:00:00,410.48,1944.04,329.61,9.06
2016-01-17 22:00:00,411.70,1946.12,330.60,9.25
2016-01-17 23:00:00,412.55,1947.57,329.72,9.15
2016-01-17 24:00:00,412.67,1950.99,330.48,9.02
2016-01-18 01:00:00,411.37,1955.98,330.93,9.05
2016-01-18 02:00:00,411.63,1959.80,330.98,9.09
2016-01-18 03:00:00,412.60,1956.86,330.44,9.09
2016-01-18 04:00:00,415.35,1980.16,329.89,8.97
2016-01-18 05:00:00,416.42,2012.31,332.24,8.98
2016-01-18 06:00:00,415.45,2001.48,331.58,9.04
2016-01-18 07:00:00,416.84,1975.34,330.60,9.06
2016-01-18 08:00:00,420.63,1979.66,330.46,9.25
2016-01-18 09:00:00,427.09,1998.87,331.69,9.05
2016-01-18 10:00:00,423.03,1985.79,330.36,9.09
2016-01-18 11:00:00,417.34,1950.77,330.73,9.13
2016-01-18 12:00:00,414.36,1947.04,329.83,9.00
2016-01-18 13:00:00,415.41,1988.94,331.11,8.90
2016-01-18 14:00:00,414.40,1969.72,331.54,9.05
2016-01-18 15:00:00,414.68,1975.05,330.20,8.90
2016-01-18 16:00:00,415.22,2007.03,329.28,9.06
2016-01-18 17:00:00,419.37,2024.55,329.96,9.16
2016-01-18 18:00:00,420.28,1971.84,331.38,9.07
2016-01-18 19:00:00,430.85,2000.82,332.80,9.16
2016-01-18 20:00:00,432.76,2007.52,331.62,9.04
2016-01-18 21:00:00,437.43,2038.23,332.58,9.10
2016-01-18 22:00:00,440.88,2039.74,331.65,9.07
2016-01-18 23:00:00,439.20,2038.50,331.94,9.14
2016-01-18 24:00:00,446.70,2054.01,332.44,9.20
2016-01-19 01:00:00,438.04,2032.00,332.01,9.31
2016-01-19 02:00:00,431.99,2003.14,331.75,9.22
2016-01-19 03:00:00,429.90,1988.54,331.66,9.04
2016-01-19 04:00:00,434.76,1987.03,334.09,9.19
2016-01-19 05:00:00,439.04,2010.85,332.10,9.15
2016-01-19 06:00:00,446.14,2050.10,331.20,9.19
2016-01-19 07:00:00,455.32,2076.71,331.40,9.23
2016-01-19 08:00:00,446.68,2046.71,331.95,9.33
2016-01-19 09:00:00,449.80,2052.90,332.36,9.29
2016-01-19 10:00:00,442.23,2035.15,331.90,9.34
2016-01-19 11:00:00,430.13,1991.04,332.47,9.37
2016-01-19 12:00:00,423.23,1974.74,331.77,9.48
2016-01-19 13:00:00,422.13,1977.75,330.45,9.39
2016-01-19 14:00:00,418.01,1965.75,331.63,9.29
2016-01-19 15:00:00,422.43,1986.49,330.86,9.68
2016-01-19 16:00:00,426.04,2010.78,330.16,10.10
2016-01-19 17:00:00,430.71,2048.03,330.83,10.84
2016-01-19 18:00:00,436.81,2100.46,332.25,11.11
2016-01-19 19:00:00,445.79,2141.84,332.62,11.32
2016-01-19 20:00:00,451.26,2170.49,332.15,11.22
2016-01-19 21:00:00,464.71,2202.59,332.93,11.20
2016-01-19 22:00:00,456.20,2181.11,332.58,11.20
2016-01-19 23:00:00,463.39,2193.55,332.74,11.37
2016-01-19 24:00:00,457.26,2173.38,333.76,11.02
2016-01-20 01:00:00,460.61,2178.57,332.07,11.08
2016-01-20 02:00:00,458.80,2177.27,333.62,11.05
2016-01-20 03:00:00,451.89,2167.95,333.77,10.99
2016-01-20 04:00:00,460.83,2206.27,333.41,11.05
2016-01-20 05:00:00,462.54,2216.70,333.07,11.05
2016-01-20 06:00:00,464.30,2214.25,333.05,11.05
2016-01-20 07:00:00,465.33,2200.87,333.04,11.31
2016-01-20 08:00:00,466.79,2179.84,332.95,11.23
2016-01-20 09:00:00,472.66,2213.24,333.54,11.07
2016-01-20 10:00:00,456.08,2124.76,332.56,10.54
2016-01-20 11:00:00,434.61,2036.96,330.97,9.64
2016-01-20 12:00:00,432.31,2027.91,331.74,9.58
2016-01-20 13:00:00,434.04,2034.49,332.00,9.83
2016-01-20 14:00:00,434.83,2048.12,332.64,10.05
2016-01-20 15:00:00,434.56,2050.11,330.76,9.78
2016-01-20 16:00:00,435.43,2071.89,331.22,9.82
2016-01-20 17:00:00,435.83,2088.68,331.67,9.84
2016-01-20 18:00:00,439.30,2108.66,331.96,9.73
2016-01-20 19:00:00,441.97,2116.19,331.97,9.75
2016-01-20 20:00:00,453.26,2158.87,332.51,9.66
2016-01-20 21:00:00,458.43,2181.50,334.01,9.70
2016-01-20 22:00:00,455.81,2173.29,332.81,9.93
2016-01-20 23:00:00,458.39,2191.33,331.76,9.88
2016-01-20 24:00:00,455.50,2176.27,332.48,9.89
2016-01-21 01:00:00,462.28,2209.70,332.97,10.07
2016-01-21 02:00:00,469.17,2231.26,333.38,10.04
2016-01-21 03:00:00,463.92,2227.26,332.87,10.11
2016-01-21 04:00:00,467.94,2249.78,334.47,10.05
2016-01-21 05:00:00,467.70,2218.29,333.99,9.96
2016-01-21 06:00:00,467.33,2200.67,332.91,10.13
2016-01-21 07:00:00,468.49,2165.51,332.85,9.76
2016-01-21 08:00:00,465.76,2139.34,332.64,9.57
2016-01-21 09:00:00,468.04,2152.02,331.89,9.93
2016-01-21 10:00:00,467.39,2138.44,332.74,9.82
2016-01-21 11:00:00,460.21,2137.19,332.91,9.78
2016-01-21 12:00:00,457.55,2135.39,332.22,9.93
2016-01-21 13:00:00,460.82,2221.92,332.10,11.66
2016-01-21 14:00:00,467.87,2327.16,332.34,13.17
2016-01-21 15:00:00,474.36,2306.61,334.32,14.83
2016-01-21 16:00:00,480.26,2321.87,333.66,14.89
2016-01-21 17:00:00,490.79,2346.21,334.49,15.39
2016-01-21 18:00:00,489.60,2335.02,334.04,17.62
2016-01-21 19:00:00,487.28,2344.22,333.18,18.03
2016-01-21 20:00:00,487.93,2370.61,333.39,16.26
2016-01-21 21:00:00,495.80,2402.35,333.92,15.51
2016-01-21 22:00:00,498.05,2404.85,334.03,15.46
2016-01-21 23:00:00,507.21,2449.22,334.28,15.44
2016-01-21 24:00:00,506.04,2437.28,335.16,15.24
2016-01-22 01:00:00,496.85,2370.47,333.32,14.32
2016-01-22 02:00:00,474.26,2255.87,332.29,12.73
2016-01-22 03:00:00,473.70,2256.36,332.92,12.74
2016-01-22 04:00:00,468.18,2213.02,332.12,12.28
2016-01-22 05:00:00,464.56,2175.61,331.78,11.87
2016-01-22 06:00:00,461.73,2148.73,333.95,11.35
2016-01-22 07:00:00,462.92,2144.02,332.62,11.37
2016-01-22 08:00:00,477.71,2182.63,332.71,11.53
2016-01-22 09:00:00,482.47,2212.62,332.07,11.67
2016-01-22 10:00:00,475.75,2193.62,333.52,11.28
2016-01-22 11:00:00,458.79,2188.93,332.49,10.83
2016-01-22 12:00:00,452.40,2127.34,332.01,10.53
2016-01-22 13:00:00,443.35,2072.86,331.32,10.26
2016-01-22 14:00:00,436.03,2054.97,331.88,9.83
2016-01-22 15:00:00,429.07,2032.50,332.91,9.79
2016-01-22 16:00:00,434.76,2074.65,332.25,10.10
2016-01-22 17:00:00,437.74,2115.19,331.74,10.25
2016-01-22 18:00:00,442.19,2126.41,331.39,10.26
2016-01-22 19:00:00,448.66,2145.32,333.55,10.31
2016-01-22 20:00:00,453.12,2153.11,332.31,10.33
2016-01-22 21:00:00,458.11,2169.62,331.25,10.42
2016-01-22 22:00:00,460.94,2177.54,333.15,10.43
2016-01-22 23:00:00,464.62,2210.74,334.00,10.44
2016-01-22 24:00:00,468.52,2207.00,333.38,10.43
2016-01-23 24:00:00,474.68,2217.94,333.56,10.52
2016-01-26 18:00:00,445.25,2211.84,332.25,9.53
2016-01-26 24:00:00,442.64,2093.58,332.82,9.58
2016-01-27 16:00:00,433.44,1980.81,331.40,9.17
2016-01-27 17:00:00,442.53,2095.39,332.32,9.26
2016-01-27 24:00:00,444.16,2136.80,332.45,9.24
2016-01-28 20:00:00,450.35,2072.53,335.10,9.41
2016-01-28 21:00:00,452.17,2101.07,333.57,9.40
2016-01-28 22:00:00,455.41,2158.97,333.77,9.29
2016-01-28 23:00:00,455.14,2139.71,333.05,9.21
2016-01-28 24:00:00,460.63,2149.69,333.63,9.17
2016-01-29 01:00:00,457.06,2173.07,333.06,9.18
2016-01-29 02:00:00,454.73,2240.75,332.68,9.34
2016-01-29 03:00:00,452.17,2237.45,333.26,9.35
2016-01-29 04:00:00,444.30,2095.75,332.62,9.12
2016-01-29 05:00:00,440.55,2075.90,333.24,9.19
2016-01-29 06:00:00,439.45,2066.87,331.81,9.15
2016-01-29 07:00:00,439.64,2056.69,332.40,9.21
2016-01-29 08:00:00,441.21,2043.65,331.18,9.21
2016-01-29 09:00:00,440.82,2032.70,332.38,9.24
2016-01-29 10:00:00,439.34,2035.73,333.20,9.39
2016-01-29 11:00:00,429.66,2042.64,331.44,9.26
2016-01-29 12:00:00,425.09,1975.13,331.23,9.22
2016-01-29 13:00:00,424.00,2025.35,330.70,9.26
2016-01-29 14:00:00,420.80,1989.06,331.23,9.23
2016-01-29 15:00:00,417.50,1967.12,330.65,9.26
2016-01-29 16:00:00,422.19,1981.99,331.56,9.35
2016-01-29 17:00:00,421.40,1965.49,330.66,9.30
2016-01-29 18:00:00,426.15,1975.87,331.90,9.15
2016-01-29 19:00:00,434.20,2001.34,331.52,9.22
2016-01-29 20:00:00,429.19,1991.60,330.59,9.18
2016-01-29 21:00:00,442.05,2050.92,331.32,9.25
2016-01-29 22:00:00,444.74,2138.04,331.93,9.25
2016-01-29 23:00:00,449.20,2112.09,332.32,9.26
2016-01-29 24:00:00,452.52,2114.50,331.89,9.31
2016-01-30 01:00:00,449.04,2074.69,331.81,9.30
2016-01-30 02:00:00,445.34,2064.37,331.50,9.36
2016-01-30 03:00:00,439.71,2070.28,331.97,9.27
2016-01-30 04:00:00,442.50,2048.11,332.80,9.16
2016-01-30 05:00:00,441.84,2032.11,332.23,9.22
2016-01-30 06:00:00,439.08,2068.97,331.40,9.18
2016-01-30 07:00:00,438.86,2040.89,331.30,9.22
2016-01-30 08:00:00,443.64,2044.96,331.72,9.28
2016-01-30 09:00:00,456.04,2078.92,332.74,9.49
2016-01-30 10:00:00,451.21,2119.04,333.08,9.32
2016-01-30 24:00:00,441.84,2084.01,333.39,9.31
2016-02-01 18:00:00,463.19,2202.23,335.87,9.93
2016-02-01 19:00:00,477.63,2348.02,336.66,12.26
2016-02-01 20:00:00,511.79,2688.85,338.19,19.83